STARLINK-3259 (50192 NORAD) Tracking and Keplerian Element Data
This shows tracking and keplerian element data for the satellite.
Feedback or suggestion? Click here.
Element | Value |
Catalog | 50192 |
Name | STARLINK-3259 |
Epoch Orbit | 130 |
Epoch Day | 140.58334491 |
Epoch Year | 2022 |
RAAN | 355.0587 |
Inclination | 53.2165 |
Eccentricity | 0.0001613 |
Argument of Perigee | 58.0982 |
Mean Anonmoly | 323.4061 |
Mean Motion | 15.0884226 |
Decay Rate | -3.007E-05 |
L1 | 1 50192U 21125AN 22140.58334491 -.00003007 00000+0 -17090-3 0 9995 |
L2 | 2 50192 53.2165 355.0587 0001613 58.0982 323.4061 15.08842260 1306 |
Live tracking and technical data element details for STARLINK-3259 (NORAD 50192). STARLINK-3259 can be tracked NOW for your location showing map with azimuth and elevation plus other details from your city location.
Track the satellite on the map from your city or location and see movement details for azimuth, elevation, latitude, longitude, range, height, and movement on the map or in text.
IsCatalogInMostPopularTable: catalog: 50192, numindb: 23
Update: records affected: 1
GetName: 50192 STARLINK-3259
Hit Count: updated at: Mon, 23 May 2022 21:32:35 GMT